Location: Arcizac
(43.0933°N, 0.0112°E)
Time: 14:30:16
(UTC+00:00)

CZ-4C R/B - Pass Details

Date: 14 December 2019
Orbit: 646 x 1356 km, 63.4° (Epoch: 23 January)

Event Time Altitude Azimuth Distance (km) Brightness Sun altitude
Rises 17:41:16 0° 178° (S) 3,011 5.3 -13.3°
Reaches altitude 10° 17:43:49 10° 165° (SSE) 2,159 4.4 -13.8°
Maximum altitude 17:47:45 25° 111° (ESE) 1,506 3.1 -14.4°
Enters shadow 17:49:19 21° 84° (E) 1,683 3.2 -14.7°
